"Pseudo-MPEC" for ZTF03c6

Created 2019 Jun 12 19:09:28 UT using Find_Orb

Click here for an explanation of pseudo-MPECs

 
 Astrometry: 
     ZTF03c6  C2019 06 06.24751817 37 29.25 +40 11 40.3    ~66NM 18.95RUNEOCPI41
     ZTF03c6  C2019 06 06.24786417 37 27.31 +40 11 37.4    ~66NM 18.95RUNEOCPI41
     ZTF03c6  C2019 06 06.26144717 36 06.84 +40 09 43.2    ~66NM 18.99RUNEOCPI41
     ZTF03c6  C2019 06 06.26179417 36 04.74 +40 09 40.0    ~66NM 18.99RUNEOCPI41
     ZTF03c6  C2019 06 06.33135717 29 55.36 +39 58 48.5    ~66NM 19.93gUNEOCPI41
     ZTF03c6  C2019 06 06.33170417 29 53.65 +39 58 44.8    ~66NM 19.93gUNEOCPI41
     ZTF03c6 KC2019 06 07c%2Un7.mKYCt`Z9Astrometry[Qa?FYFredacted;Z2:3tqq7P)lL01
     ZTF03c6 KC2019 06 07ytlwK%tyf/9!click`T@`3@WnSq['BS?s61herer1fb7w\k=k*?,L01
     ZTF03c6 KC2019 06 07^_lKZ#?gtUforn=.3jxy/e4KV1.GOy+n_i-,og/4.*C#!+6k*iamL01
     ZTF03c6 KC2019 06 07Tu?1,MX[d)f-7LX[kg?explanation4D@@4eJ$L=XG\i.cCj@M0ML01

Station data:
(I41) Palomar Mountain--ZTF  (N33.357340 W116.859780)  US/California. 1.2-m
   f/2.44 Oschin Schmidt + CCD.
(L01) Višnjan Observatory, Tičan  (N45.290900 E13.749300)  Croatia.
   Observers K. Korlević, E. Pettarin. Measurer E. Pettarin. 1.0-m f/2.9
   reflector + CCD.

Orbital elements:  ZTF03c6
   Perihelion 2019 Mar 28.525507 +/- 0.09 TT = 12:36:43 (JD 2458571.025507)
Epoch 2019 Jun  7.0 TT = JDT 2458641.5   Earth MOID: 0.0003   AutoNEOCP
M  60.93377891 +/- 0.13             (J2000 ecliptic)
n   0.86462173 +/- 0.000857         Peri.  273.86607 +/- 0.08
a   1.09123582 +/- 0.000721         Node   254.41292 +/- 0.00043
e   0.2361860 +/- 0.000542          Incl.   22.27611 +/- 0.044
P   1.14/416.36d           H 28.7   G  0.15   U  8.0  
q 0.83350110 +/- 4.56e-5    Q 1.34897054 +/- 0.00148
From 10 observations 2019 June 6-7 (19.2 hr); mean residual 0".41
Residuals in arcseconds: 
190606 I41  .58-  .19+    190606 I41  .23+  .11+    190607 L01  .59-  .23+    
190606 I41  1.1+  .14+    190606 I41  .16-  .08-    190607 L01  .32-  .09+    
190606 I41  .19+  .07-    190607 L01  .38+  .19-    
190606 I41  .77-  .30-    190607 L01  .53+  .13-    

Ephemerides (geocentric):
Date (UTC) HH   RA              Dec         delta   r     elong  mag " sig PA
---- -- -- --  -------------   -----------  ------ ------ -----  --- ---- ---
2019 06 12 19  16 47 11.434   +37 21 44.13  .05477 1.0431 118.9 24.6 3.47  69
2019 06 12 20  16 47 09.988   +37 21 30.21  .05509 1.0432 118.9 24.6 3.48  68
2019 06 12 21  16 47 08.560   +37 21 16.33  .05541 1.0434 118.9 24.6 3.48  68
2019 06 12 22  16 47 07.152   +37 21 02.50  .05572 1.0436 118.9 24.6 3.49  68
2019 06 12 23  16 47 05.761   +37 20 48.70  .05604 1.0437 118.9 24.7 3.50  68
2019 06 13 00  16 47 04.389   +37 20 34.93  .05636 1.0439 118.9 24.7 3.51  68
2019 06 13 01  16 47 03.035   +37 20 21.20  .05668 1.0441 118.9 24.7 3.51  68
2019 06 13 02  16 47 01.698   +37 20 07.50  .05699 1.0442 118.9 24.7 3.52  68
2019 06 13 03  16 47 00.379   +37 19 53.83  .05731 1.0444 118.9 24.7 3.53  68
2019 06 13 04  16 46 59.077   +37 19 40.20  .05763 1.0446 118.9 24.7 3.53  68
2019 06 13 05  16 46 57.791   +37 19 26.59  .05795 1.0447 118.9 24.7 3.54  68
2019 06 13 06  16 46 56.522   +37 19 13.02  .05826 1.0449 118.9 24.7 3.55  68
2019 06 13 07  16 46 55.270   +37 18 59.47  .05858 1.0451 118.9 24.8 3.55  68
2019 06 13 08  16 46 54.033   +37 18 45.95  .05890 1.0452 118.9 24.8 3.56  68
2019 06 13 09  16 46 52.812   +37 18 32.45  .05922 1.0454 118.9 24.8 3.57  68
2019 06 13 10  16 46 51.606   +37 18 18.98  .05953 1.0456 118.9 24.8 3.57  68
2019 06 13 11  16 46 50.416   +37 18 05.53  .05985 1.0457 118.9 24.8 3.58  68
2019 06 13 12  16 46 49.241   +37 17 52.11  .06017 1.0459 118.8 24.8 3.59  68
2019 06 13 13  16 46 48.080   +37 17 38.71  .06048 1.0461 118.8 24.8 3.59  68
2019 06 13 14  16 46 46.934   +37 17 25.33  .06080 1.0462 118.8 24.8 3.60  68
2019 06 13 15  16 46 45.803   +37 17 11.97  .06112 1.0464 118.8 24.8 3.60  68
2019 06 13 16  16 46 44.685   +37 16 58.62  .06144 1.0466 118.8 24.9 3.61  68
2019 06 13 17  16 46 43.582   +37 16 45.30  .06175 1.0467 118.8 24.9 3.62  68
2019 06 13 18  16 46 42.492   +37 16 32.00  .06207 1.0469 118.8 24.9 3.62  68
2019 06 13 19  16 46 41.416   +37 16 18.71  .06239 1.0471 118.8 24.9 3.63  68
2019 06 13 20  16 46 40.353   +37 16 05.44  .06271 1.0472 118.8 24.9 3.63  68
2019 06 13 21  16 46 39.304   +37 15 52.18  .06302 1.0474 118.8 24.9 3.64  68
2019 06 13 22  16 46 38.267   +37 15 38.94  .06334 1.0476 118.8 24.9 3.64  68
2019 06 13 23  16 46 37.243   +37 15 25.72  .06366 1.0477 118.8 24.9 3.65  68
2019 06 14 00  16 46 36.232   +37 15 12.50  .06398 1.0479 118.8 24.9 3.66  68
2019 06 14 01  16 46 35.233   +37 14 59.30  .06429 1.0481 118.8 25.0 3.66  68
2019 06 14 02  16 46 34.246   +37 14 46.11  .06461 1.0482 118.8 25.0 3.67  68
2019 06 14 03  16 46 33.271   +37 14 32.94  .06493 1.0484 118.8 25.0 3.67  68
2019 06 14 04  16 46 32.309   +37 14 19.77  .06524 1.0486 118.8 25.0 3.68  68
2019 06 14 05  16 46 31.358   +37 14 06.61  .06556 1.0487 118.8 25.0 3.68  68
2019 06 14 06  16 46 30.419   +37 13 53.46  .06588 1.0489 118.7 25.0 3.69  68
2019 06 14 07  16 46 29.491   +37 13 40.33  .06620 1.0491 118.7 25.0 3.69  68
2019 06 14 08  16 46 28.574   +37 13 27.19  .06651 1.0492 118.7 25.0 3.70  68
2019 06 14 09  16 46 27.669   +37 13 14.07  .06683 1.0494 118.7 25.0 3.70  68
2019 06 14 10  16 46 26.774   +37 13 00.95  .06715 1.0496 118.7 25.1 3.71  68
2019 06 14 11  16 46 25.890   +37 12 47.84  .06746 1.0497 118.7 25.1 3.71  68
2019 06 14 12  16 46 25.017   +37 12 34.74  .06778 1.0499 118.7 25.1 3.72  68
2019 06 14 13  16 46 24.155   +37 12 21.64  .06810 1.0501 118.7 25.1 3.72  68
2019 06 14 14  16 46 23.303   +37 12 08.54  .06842 1.0502 118.7 25.1 3.72  68
2019 06 14 15  16 46 22.461   +37 11 55.45  .06873 1.0504 118.7 25.1 3.73  68
2019 06 14 16  16 46 21.630   +37 11 42.36  .06905 1.0506 118.7 25.1 3.73  68
2019 06 14 17  16 46 20.808   +37 11 29.27  .06937 1.0507 118.7 25.1 3.74  68
2019 06 14 18  16 46 19.997   +37 11 16.19  .06968 1.0509 118.7 25.1 3.74  68